Theta_e
332 332 332 331 327 330 326 326 327 330 331 330 332 333 333 330 330 331 334 324 328 330 332 331 332 328 327 326 324 323 323 323 321 321 316 307 318 323
332 332 332 331 329 327 326 324 325 329 333 332 332 332 333 333 331 333 334 330 327 330 332 331 329 327 325 325 321 323 324 322 320 318 311 317 322 323
332 331 331 331 329 328 328 330 330 329 333 331 332 332 332 333 333 331 330 331 330 331 331 330 327 326 321 321 323 324 322 321 319 318 316 321 323 322
332 331 331 331 330 330 330 331 331 331 331 331 327 327 330 331 330 330 330 330 330 330 330 326 326 318 320 323 323 322 321 319 317 319 323 322 321 317
332 331 330 331 331 332 332 332 332 332 331 328 324 324 326 328 328 328 327 327 326 326 325 326 320 317 322 322 322 319 316 315 320 322 322 319 315 314
332 331 331 332 331 332 332 332 332 332 331 327 323 323 322 323 324 322 321 322 323 323 322 318 318 322 316 321 319 317 318 321 321 319 316 315 313 311
333 332 332 332 331 332 332 332 332 331 328 325 322 322 321 321 321 321 321 320 319 320 319 320 319 317 319 318 319 322 322 319 316 315 314 312 311 307
333 332 332 330 328 328 329 330 331 330 328 325 322 321 321 320 321 321 320 320 319 318 319 319 320 321 319 320 322 320 316 315 314 313 311 310 308 301
330 330 329 328 327 326 326 328 328 328 327 326 323 322 321 321 321 320 320 319 319 317 318 316 319 318 317 317 315 315 315 314 313 311 310 308 302 297
329 329 329 327 327 327 327 327 326 326 325 325 323 321 320 320 321 319 319 318 317 317 317 314 317 319 318 315 313 315 315 314 311 309 308 303 297 295
325 327 327 327 325 326 327 326 322 324 324 323 321 320 319 319 320 319 317 318 317 317 317 315 315 318 319 317 314 315 315 313 310 308 305 299 296 295
325 324 324 324 324 325 325 323 320 320 322 320 319 318 318 319 319 319 317 318 319 319 320 320 319 319 320 319 318 314 315 313 309 307 302 298 296 296
322 321 323 323 323 324 324 324 320 319 319 318 317 317 318 317 318 319 319 320 321 322 321 322 321 320 321 320 318 317 315 312 308 307 304 299 297 296
322 321 322 322 322 321 322 321 320 319 318 318 318 318 318 320 320 323 323 322 323 324 321 322 322 320 319 319 318 316 315 314 312 309 308 305 302 298
321 322 321 321 322 321 321 320 319 319 319 319 319 320 321 322 323 323 323 323 321 321 320 320 319 319 320 320 320 318 317 315 314 314 313 312 310 306
322 321 322 322 321 320 320 321 323 322 322 323 323 323 323 324 324 324 323 321 321 319 318 319 320 320 319 319 320 322 320 320 320 317 316 316 315 313
323 323 323 323 322 322 323 324 325 323 325 324 324 324 324 324 324 323 321 319 319 320 318 318 319 320 320 321 322 322 323 324 324 323 321 319 319 318
325 325 325 324 324 325 326 326 326 325 325 325 325 325 324 323 322 322 321 319 319 321 321 319 319 320 321 322 322 324 325 325 325 325 325 324 323 321
325 326 326 325 326 326 326 326 326 326 326 326 326 325 325 325 323 322 321 320 320 321 321 322 324 324 326 328 325 325 326 325 325 325 325 325 324 323
325 326 326 327 327 328 328 327 327 327 326 326 326 325 324 323 321 321 321 322 322 323 325 326 326 326 326 327 326 325 324 325 324 323 324 325 325 323
328 327 327 327 328 328 328 328 327 327 327 326 325 324 324 323 321 320 322 322 323 324 325 326 326 326 326 325 325 325 323 322 321 323 324 324 324 324
328 328 327 327 328 328 328 328 328 328 327 327 326 325 323 323 323 324 323 323 323 323 324 324 324 325 326 327 326 325 324 326 325 324 322 319 320 323
329 329 329 329 329 328 328 328 328 328 328 328 328 327 326 326 325 325 325 325 325 325 325 325 325 324 324 326 326 327 327 327 328 323 322 323 318 313
Wind_Speed
11 10 9 7 8 8 7 7 5 3 3 8 7 9 10 11 10 11 14 19 18 19 21 25 35 40 38 29 24 26 26 22 20 18 16 16 15 9
9 9 9 7 9 9 10 9 10 5 3 9 6 10 9 10 10 10 12 18 18 21 25 32 37 39 31 24 28 25 21 20 18 16 16 16 14 17
9 9 10 9 11 12 12 11 10 10 8 9 9 7 9 12 11 10 13 19 21 26 31 34 34 30 27 28 25 23 21 20 19 17 17 13 16 12
12 11 11 12 11 10 11 10 10 9 9 13 9 7 11 11 12 13 16 21 31 33 34 34 32 30 28 25 24 22 21 19 17 16 16 15 12 12
13 12 11 12 13 12 11 10 10 9 9 14 8 14 15 16 18 19 24 29 30 38 33 35 33 29 27 23 21 21 20 19 17 16 14 13 12 12
11 11 11 12 13 11 10 10 10 11 14 15 16 14 16 19 25 29 27 31 36 33 36 31 28 26 25 22 21 20 18 17 15 14 13 13 12 11
7 10 10 9 12 12 10 11 12 14 16 18 14 15 17 16 21 23 28 30 30 36 31 27 27 25 23 21 19 16 16 14 14 14 13 12 11 10
7 7 7 8 10 13 9 12 16 16 18 19 15 19 18 22 27 28 31 31 13 25 30 24 28 25 21 18 16 15 14 14 13 12 12 12 12 11
7 10 10 10 10 11 14 15 16 15 17 19 20 22 25 30 32 30 28 23 19 23 29 23 22 23 20 15 16 15 14 13 12 12 13 13 12 13
8 9 11 12 13 15 16 15 15 16 17 17 19 21 26 29 30 30 25 26 25 22 25 8 13 17 14 13 16 15 13 13 13 13 14 14 14 14
10 10 11 12 15 16 16 17 16 18 17 20 24 30 32 31 34 30 27 28 21 16 13 11 14 13 13 12 15 16 15 15 15 16 16 16 15 15
12 10 12 16 17 18 16 17 18 19 26 27 28 30 32 31 27 25 31 26 20 13 18 16 18 16 11 15 14 14 17 18 17 18 19 18 19 18
10 9 13 16 17 16 16 17 18 23 30 30 28 31 30 26 24 26 26 23 22 14 22 15 21 18 9 12 16 16 15 15 18 21 24 25 24 24
11 13 18 16 17 17 16 22 25 28 26 25 25 26 26 22 23 19 17 18 10 5 24 13 17 17 11 10 11 16 16 16 16 18 18 20 24 28
15 17 18 21 18 17 22 26 26 24 23 22 22 21 22 22 20 14 12 9 4 11 24 13 14 16 11 8 10 10 12 16 19 19 19 21 21 19
20 21 19 15 15 22 25 21 18 20 21 23 21 20 20 18 17 16 15 14 11 14 18 11 8 13 12 11 9 10 12 10 12 18 19 20 22 24
20 19 17 17 19 18 15 13 17 22 21 20 20 19 18 18 17 17 15 17 12 13 15 16 12 10 10 10 13 14 14 16 17 17 18 21 23 25
17 17 18 19 17 15 12 17 17 18 19 19 19 19 19 19 17 16 15 16 15 12 13 14 14 13 13 16 20 18 17 19 18 18 20 23 25 24
14 15 18 18 16 12 13 15 16 17 18 19 18 18 17 16 15 15 15 15 15 14 14 14 16 16 14 11 13 21 18 18 19 20 21 23 25 26
11 13 15 14 14 14 15 15 15 15 16 16 16 16 15 16 16 16 16 16 17 16 17 18 19 19 20 18 18 15 19 20 21 23 23 23 26 28
12 13 13 13 13 13 12 14 16 17 17 17 17 16 16 16 16 17 17 17 17 18 19 20 21 21 22 21 22 23 24 28 28 25 23 23 24 26
13 13 13 13 13 13 15 15 14 14 16 17 17 17 17 18 18 18 19 19 21 22 22 21 20 20 20 23 25 26 25 24 22 27 30 29 23 18
13 13 14 15 16 17 17 16 17 17 18 19 19 19 19 20 21 21 21 22 23 23 23 24 24 24 26 24 25 25 26 26 24 22 26 27 26 28
Wind_Direction
216 220 225 221 215 175 171 177 153 147 171 193 165 175 172 162 169 171 169 178 179 181 181 169 169 166 167 163 157 161 161 153 160 160 156 151 149 155
215 215 218 196 203 196 186 192 208 217 143 168 155 163 159 153 153 158 165 169 183 176 176 161 164 166 160 162 155 155 156 160 160 160 159 155 162 165
216 211 210 191 195 191 203 194 197 194 168 129 127 128 143 146 143 139 148 165 175 172 164 164 160 156 155 153 154 157 159 161 161 162 160 172 164 181
208 205 201 190 192 192 204 202 195 181 173 150 134 129 131 134 148 144 152 159 167 172 164 159 154 150 150 153 158 158 159 161 162 163 164 171 186 196
206 198 201 192 193 197 198 195 190 172 149 147 125 135 128 147 140 137 142 152 159 163 154 153 151 153 153 151 156 160 161 162 168 168 178 189 196 197
194 200 201 193 190 187 193 193 184 158 137 135 125 126 121 129 138 124 115 132 136 147 148 147 149 156 149 156 159 162 163 166 171 182 188 194 198 207
191 195 194 189 185 177 186 190 179 147 145 140 130 128 132 132 133 131 122 123 126 141 140 149 152 151 151 153 157 165 170 174 183 189 194 200 205 212
195 171 147 176 181 177 179 178 169 166 157 151 144 144 141 133 138 134 130 127 122 145 136 133 151 146 147 155 171 174 180 186 188 195 200 206 211 211
157 152 145 155 156 159 165 167 163 168 166 162 151 153 148 148 143 140 140 136 135 146 139 122 151 150 158 174 177 180 188 193 197 205 209 211 216 227
132 146 146 149 158 156 150 145 145 150 154 158 155 147 149 149 146 141 133 123 123 134 146 117 152 158 166 183 186 193 198 204 211 216 216 220 229 235
143 129 139 147 153 156 148 136 128 136 146 150 155 158 152 149 148 142 132 135 132 142 152 141 163 169 178 187 202 209 213 216 221 221 222 230 237 244
124 135 152 158 158 151 144 140 127 133 137 141 147 150 151 147 144 150 142 143 143 147 179 166 173 169 187 199 204 217 221 226 228 226 229 235 238 240
127 139 156 157 157 149 142 143 136 138 141 139 134 141 147 140 138 149 153 158 167 174 178 178 184 188 196 173 203 211 213 225 232 235 236 239 240 240
122 135 145 149 155 146 138 148 145 138 133 133 136 138 143 149 157 160 162 166 186 226 177 189 183 186 194 182 186 206 216 221 227 229 237 252 255 252
129 138 142 141 134 139 139 142 139 137 138 140 145 149 153 154 159 150 153 149 147 169 168 177 191 192 208 196 188 194 205 229 229 234 238 240 243 245
129 131 131 126 128 134 139 143 150 144 147 148 148 147 154 159 161 169 174 178 153 160 181 188 187 198 212 225 233 227 223 231 226 234 242 248 249 248
133 131 125 125 133 150 159 165 150 149 150 150 151 155 161 169 173 176 181 184 197 167 181 205 208 211 224 241 239 239 245 249 249 250 242 253 256 255
142 146 143 148 158 164 163 152 158 157 163 160 161 167 168 176 175 182 189 192 202 198 195 195 203 220 236 248 240 247 253 258 259 256 254 258 263 265
156 157 157 164 167 170 165 162 164 171 167 167 170 177 179 187 181 192 199 202 208 213 212 209 211 222 237 243 255 226 238 254 261 260 257 260 263 269
168 172 175 176 174 174 173 172 168 171 179 178 181 187 192 196 195 207 207 211 215 218 224 221 224 230 239 253 268 268 242 249 255 263 268 268 268 267
184 188 194 188 188 186 189 186 185 186 188 189 192 195 198 204 206 213 218 219 226 230 233 235 238 241 247 259 261 260 264 261 262 253 264 267 270 276
193 199 198 201 201 206 198 200 202 189 198 204 207 207 209 214 220 220 225 229 224 236 243 249 249 245 241 248 255 260 265 269 267 255 260 258 257 266
192 194 192 200 202 204 207 209 210 214 213 215 219 221 222 225 228 233 234 234 240 242 238 243 248 250 251 250 256 261 263 266 269 260 261 272 274 265